Regional Weather Roundup
Issued by NWS

Home | Current Version | Previous Version | Graphics & Text | Print | Product List | Glossary On
Versions: 1 2 3 4 5 6 7 8 9 10 11 12 13 14 15 16 17 18 19 20 21 22 23 24 25 26 27 28 29 30 31 32 33 34 35 36 37 38 39 40 41 42 43 44 45 46 47 48 49 50
000
ASUS43 KFSD 222102
RWRSD

WEATHER ROUNDUP FOR SOUTH DAKOTA
NATIONAL WEATHER SERVICE SIOUX FALLS SD
400 PM CDT FRI AUG 22 2014

NOTE: "FAIR" INDICATES FEW OR NO CLOUDS BELOW 12,000 FEET WITH NO
SIGNIFICANT WEATHER AND/OR OBSTRUCTIONS TO VISIBILITY.


SDZ001>005-009-010-012>017-222200-
NORTHWEST AND NORTH CENTRAL SOUTH DAKOTA

CITY           SKY/WX    TMP DP  RH WIND       PRES   REMARKS
BUFFALO          N/A     68  60  75 E13       30.01S
FAITH            N/A     70  62  76 NE10      30.04F
MOBRIDGE       PTSUNNY   75  65  70 NE8       30.00S
$$

SDZ012>016-024>037-041>051-057-063-072>074-222200-
SOUTHWEST AND SOUTH CENTRAL SOUTH DAKOTA

CITY           SKY/WX    TMP DP  RH WIND       PRES   REMARKS
RAPID CTY ARPT PTSUNNY   73  60  63 E9        30.04F
PIERRE         PTSUNNY   80  66  62 E15       29.97F
CUSTER         PTSUNNY   73  55  53 SE9       30.13S
ELLSWORTH AFB  PTSUNNY   74  62  64 E6        30.04F
PHILIP         PTSUNNY   80  62  54 E8        29.98F
PINE RIDGE     CLOUDY    75  61  61 VRB5      30.03F
WINNER         FAIR      87  66  49 S9        29.97F
$$

SDZ004>011-016>023-039-040-222200-
NORTHEAST SOUTH DAKOTA

CITY           SKY/WX    TMP DP  RH WIND       PRES   REMARKS
ABERDEEN       CLOUDY    76  67  73 NE8       30.00S
WATERTOWN      MOSUNNY   81  68  64 NE8       29.99F
SISSETON         N/A     79  70  74 N7        29.98F
$$

SDZ017-020-022-023-036>040-048>070-222200-
SOUTHEAST SOUTH DAKOTA

CITY           SKY/WX    TMP DP  RH WIND       PRES   REMARKS
SIOUX FALLS    PTSUNNY   83  68  60 E7        29.96F
HURON          CLOUDY    84  68  58 N5        29.96S
CHAMBERLAIN    CLOUDY    82  67  60 E6        29.97F
MITCHELL       LGT RAIN  85  67  54 CALM      29.96S
YANKTON        PTSUNNY   84  72  65 NE3       29.94S
$$

ABBREVIATIONS USED IN REMARKS
   TC - TEMPERATURE IN CELSIUS
  WCI - WIND CHILL INDEX
   HX - HEAT INDEX
  VSB - VISIBILITY



USA.gov is the U.S. government's official web portal to all federal, state and local government web resources and services.